Flag for Denmark Weather past 2 weeks in Copenhagen, Denmark

Now
46 °F

Clear.


Feels Like: 42 °F
Forecast: 39 / 51 °F
Wind: 8 mph from Northwest

Location: Koebenhavn-Kastrup Airport

Current Time: Apr 27, 2015 at 11:07:35 PM

Latest Report: Apr 27, 2015 at 10:20 PM


Visibility: 10 mi

Pressure: 29.74 "Hg

Humidity: 66%

Dew point: 36 °F

Location of CopenhagenLocation

Historic Weather in Copenhagen — Graph

°F

Copenhagen temperature yesterday

Maximum temperature yesterday: 52 °F (at 8:20 AM)
Minimum temperature yesterday: 39 °F (at 11:20 PM)
Average temperature yesterday: 46 °F

Past Weeks' High & Low Weather Summary

 TemperatureHumidityPressure
High61 °F (Apr 15, 2:50 PM)100% (Apr 14, 3:20 PM)30.30 "Hg (Apr 14, 3:20 PM)
Low37 °F (Apr 13, 4:20 AM)31% (Apr 20, 6:20 PM)29.65 "Hg (Apr 15, 6:50 PM)
Average48 °F72%29.98 "Hg
* Reported Apr 12 9:20 PM — Apr 27 9:50 PM, Copenhagen, Weather by CustomWeather, © 2015

Note: Actual official high and low records may vary slightly from our data, if they occured in-between our weather recording intervals... More about our weather records

Advertising

Copenhagen weather history for previous 24 hours

 ConditionsComfort  
Time TempWeatherWind HumidityBarometerVisibility
9:50 PM
Mon, Apr 27
48 °FClear.10 mph58%29.74 "Hg10 mi
9:20 PM46 °FSunny.9 mph57%29.74 "Hg10 mi
8:50 PM48 °FSunny.7 mph50%29.74 "Hg10 mi
8:20 PM50 °FSunny.10 mph47%29.74 "Hg10 mi
7:50 PM50 °FSunny.10 mph43%29.71 "Hg10 mi
7:20 PM52 °FPassing clouds.12 mph41%29.71 "HgN/A
6:50 PM52 °FPassing clouds.10 mph41%29.71 "HgN/A
6:20 PM52 °FPassing clouds.9 mph44%29.71 "HgN/A
5:50 PM52 °FPassing clouds.10 mph47%29.71 "HgN/A
5:20 PM52 °FPartly sunny.7 mph44%29.71 "HgN/A
4:50 PM52 °FPartly sunny.6 mph41%29.71 "HgN/A
4:20 PM50 °FPartly sunny.8 mph67%29.71 "HgN/A
3:50 PM50 °FPartly sunny.8 mph71%29.71 "HgN/A
3:20 PM48 °FPartly sunny.6 mph71%29.71 "HgN/A
2:50 PM48 °FBroken clouds.7 mph71%29.71 "HgN/A
2:20 PM48 °FBroken clouds.7 mph71%29.71 "HgN/A
1:50 PM50 °FBroken clouds.5 mph67%29.71 "HgN/A
1:20 PM48 °FPartly sunny.7 mph71%29.71 "HgN/A
12:50 PM48 °FBroken clouds.8 mph76%29.71 "HgN/A
12:20 PM48 °FBroken clouds.8 mph76%29.71 "HgN/A
11:50 AM46 °FPartly sunny.6 mph82%29.71 "HgN/A
11:20 AM46 °FPartly sunny.6 mph87%29.71 "HgN/A
10:50 AM46 °FPartly sunny.3 mph76%29.71 "HgN/A
10:20 AM46 °FPartly sunny.3 mph76%29.71 "HgN/A
9:50 AM46 °FPartly sunny.3 mph82%29.71 "HgN/A
9:20 AM45 °FPartly sunny.3 mph81%29.71 "HgN/A
8:50 AM45 °FPartly sunny.3 mph87%29.71 "HgN/A
8:20 AM45 °FSunny.3 mph87%29.71 "Hg10 mi
7:50 AM43 °FSunny.3 mph87%29.71 "Hg10 mi
7:20 AM43 °FSunny.1 mph87%29.71 "Hg10 mi
6:50 AM43 °FSunny.3 mph87%29.71 "Hg10 mi
6:20 AM43 °FClear.3 mph87%29.68 "Hg10 mi
5:20 AM41 °FClear.2 mph87%29.68 "Hg10 mi
4:50 AM39 °FClear.5 mph93%29.68 "Hg10 mi
4:20 AM39 °FClear.6 mph100%29.68 "Hg10 mi
3:50 AM39 °FClear.2 mph100%29.71 "Hg10 mi
3:20 AM39 °FClear.2 mph93%29.71 "Hg10 mi
2:50 AM41 °FClear.6 mph93%29.71 "Hg10 mi
2:20 AM41 °FClear.2 mph87%29.71 "Hg10 mi
1:50 AM39 °FClear.1 mph93%29.71 "Hg10 mi
1:20 AM41 °FClear.3 mph93%29.71 "Hg10 mi
12:50 AM41 °FClear.5 mph93%29.71 "Hg10 mi
12:20 AM39 °FClear.5 mph93%29.71 "Hg10 mi
11:50 PM
Sun, Apr 26
39 °FClear.5 mph93%29.71 "Hg10 mi
11:20 PM39 °FClear.3 mph93%29.71 "Hg10 mi
Weather by CustomWeather, © 2015

See weather overviewHow to use our weather pages